星链-32553 (STARLINK-32553)

导读 | 星芒AI

STARLINK-32553 是 SpaceX Starlink 卫星互联网项目中的一颗低轨卫星,属于第三代星链卫星(v1.5 或 v2 版本)。该卫星用于提供全球高速互联网服务,支持偏远地区网络接入。它运行在约 550 公里的轨道高度,配备先进推进系统和激光通信技术,以提高连接稳定性和减少延迟。作为星链星座的一部分,STARLINK-32553 有助于增强全球卫星网络覆盖和性能。

基本信息
目录编号:
62071
目录名称:
STARLINK-32553
国际标识:
2024-217Q
轨道中心:
EARTH
卫星名称:
星链-32553
卫星全名:
星链-32553 (STARLINK-32553)
卫星状态:
在轨 (已飞行391 天)
发射日期:
2024-11-24 UTC
国别 :
美国 (US)
星等 :
--
轨道信息
数据来源 国际轨道数据 AOE轨道数据
星历时间 2025-12-19T15:48:47+0800
1天前
查看轨道信息
2025-12-20T12:00:00+0800
6小时前
查看轨道信息
半长轴 6853.314km 6853.218km
偏心率 0.0001631 0.0001629
轨道倾角 53.158° 53.155°
近地点辐角 82.573° 91.615°
升交点赤经 207.437° 203.530°
平近点角 277.545° 224.703°
近地点 474.059km 473.964km
远地点 476.295km 476.198km
周期 94.105分钟 94.103分钟
每日圈数 15.302129 15.30245
详细信息
固有亮度:
5
最大亮度:
2.5
卫星平台:
Starlink V1.0
覆盖范围:
全球
运营商:
太空探索技术公司
运营商所在国:
美国
制造商(研发单位):
太空探索技术公司
制造商所在国:
美国
使用方式:
暂无
卫星简介
Starlink 计划是 SpaceX 推出的全球卫星互联网项目,通过发射低轨道卫星,为全球尤其是偏远地区提供高速、低延迟的互联网服务。自 2019 年起,Starlink 已部署数千颗卫星,旨在缩小全球数字鸿沟,推动互联网普及。该项目还为军事、航空等行业提供通信支持,带来广泛经济效益。
2D轨道图
3D轨道图
轨道高度分析图
轨道倾角分析图
轨道综合分析图
查看轨道综合分析图